User: anonymous   Login
Location: Caltech
(34.1382°N, 118.1253°W)
Time: 14:56:54
(UTC-07:00)
Language:

ASTRO E2 - Orbit

View from above orbital plane
View from above orbital plane
View from above satellite
View from above satellite

Ground track
Ground track

The orbit data is extracted from the following two-line orbital elements,

1 28773U 05025A   15215.83667906  .00002615  00000-0  13926-3 0  9996
2 28773 031.3838 040.4091 0005211 337.9128 022.1293 15.13151630553654
Epoch (UTC): 03 August 2015 20:04:49
Eccentricity: 0.0005211
inclination: 31.3838°
perigee height: 523 km
apogee height: 530 km
right ascension of ascending node: 40.4091°
argument of perigee: 337.9128°
revolutions per day: 15.13151630
mean anomaly at epoch: 22.1293°
orbit number at epoch: 55365

The dashed part of the orbit path shows where the satellite is in the earth's shadow,  

DLR